Home > Weather > Norwalk > Past weeks

Flag for USA Past Weather in Norwalk, California, USA — Yesterday and Last 2 Weeks

Now
67 °F

Overcast.


Feels Like: 67 °F
Forecast: 62 / 86 °F
Wind: 5 mph from South

Location: Fullerton Municipal Airport

Current Time: Jun 25, 2016 at 1:41:25 AM

Latest Report: Jun 25, 2016 at 12:53 AM


Visibility: 9 mi

Pressure: 29.87 "Hg

Humidity: 76%

Dew Point: 59 °F

Location of NorwalkLocation

Past Weather in Norwalk — Graph

°F

Norwalk Temperature Yesterday

Maximum temperature yesterday: 78 °F (at 12:53 PM)
Minimum temperature yesterday: 66 °F (at 10:53 PM)
Average temperature yesterday: 71 °F

High & Low Weather Summary for the Past Weeks

 TemperatureHumidityPressure
High108 °F (Jun 20, 1:53 PM)94% (Jun 22, 3:53 AM)30.12 "Hg (Jun 22, 3:53 AM)
Low59 °F (Jun 16, 4:53 AM)6% (Jun 20, 5:53 PM)29.79 "Hg (Jun 20, 5:53 PM)
Average72 °F48%29.94 "Hg
* Reported Jun 10 12:53 AM — Jun 25 12:01 AM, Norwalk, Weather by CustomWeather, © 2016

Note: Actual official high and low records may vary slightly from our data, if they occured in-between our weather recording intervals... More about our weather records

Advertising

Norwalk Weather History for the Previous 24 Hours

Scroll right to see more
 ConditionsComfort  
Time TempWeatherWind HumidityBarometerVisibility
12:01 AM
Sat, Jun 25
66 °FPassing clouds.5 mph78%29.89 "Hg9 mi
10:53 PM
Fri, Jun 24
66 °FClear.5 mph78%29.88 "Hg10 mi
9:53 PM67 °FClear.5 mph76%29.88 "Hg10 mi
8:53 PM68 °FSunny.5 mph73%29.87 "Hg10 mi
7:53 PM69 °FSunny.3 mph70%29.86 "Hg10 mi
6:53 PM71 °FSunny.8 mph66%29.86 "Hg10 mi
5:53 PM73 °FSunny.8 mph62%29.86 "Hg10 mi
4:53 PM74 °FSunny.7 mph60%29.88 "Hg10 mi
3:53 PM76 °FSunny.10 mph56%29.88 "Hg10 mi
2:53 PM78 °FSunny.10 mph52%29.89 "Hg10 mi
1:53 PM78 °FSunny.8 mph52%29.90 "Hg10 mi
12:53 PM78 °FSunny.7 mph52%29.92 "Hg10 mi
11:53 AM75 °FSunny.7 mph58%29.93 "Hg10 mi
10:53 AM74 °FScattered clouds.7 mph62%29.94 "Hg10 mi
9:53 AM74 °FPartly sunny.5 mph62%29.94 "Hg10 mi
8:53 AM71 °FOvercast.No wind68%29.94 "Hg10 mi
7:53 AM69 °FOvercast.No wind73%29.93 "Hg9 mi
6:53 AM68 °FOvercast.No wind76%29.93 "Hg9 mi
5:53 AM68 °FOvercast.5 mph78%29.92 "Hg10 mi
4:53 AM68 °FOvercast.No wind78%29.92 "Hg10 mi
3:53 AM67 °FOvercast.3 mph81%29.91 "Hg10 mi
2:53 AM67 °FOvercast.No wind81%29.93 "Hg10 mi
1:53 AM67 °FOvercast.No wind81%29.93 "Hg9 mi
Weather by CustomWeather, © 2016

See weather overviewHow to use our weather pages